OBJECT K, 61236

Orbit data source: Space-Track

You're viewing an Uncataloged Satellite

Recently launched and/or uncataloged satellites may have evolving metadata. Metadata may include but not limited to: Owner, Maufacturer, Bus, Motor, and Mission.

OBJECT K, 61236 is a satellite owned by Changzheng H. (CN) in SSO that was launched on Tue, 24 Sep 2024 UTC launched from the Yellow Sea Launch Area, China (YSLA). Unknown objects in Earth's orbit typically refer to objects detected orbiting the Earth but have not yet been identified or cataloged. These objects could be anything from previously untracked satellites, spent rocket stages, debris from satellite collisions, or even natural meteoroids temporarily captured by Earth's gravity.

Loading next visibility...
OBJECT K details
Identifier
61236, 2024-173K
Orbit
SSO
Last TLE update10 hours ago
Origin
Flag of CNChangzheng H. (CN / PRC)
ManufacturerChangzheng H.
MissionSpacecraft
Bus & MotorUnknown
MassUnknown
Launch date (UTC)
2024-09-24 (5 months ago)
Launch vehicleUnknown
Launch site
Yellow Sea Launch Area, China (YSLA)
Object typeUnknown
Shape & HBRUnknown
Radar Cross SectionMedium (>0.1 m² and <1 m²)

Expand to show TLE details & history

TLE from 10 hours ago
0 OBJECT K
1 61236U 24173K   25040.22829201  .00047586  00000-0  11331-2 0  9993
2 61236  97.4216 119.8293 0015743 169.1098 191.0492 15.41333149 21177
Epoch: 2025-02-09T05:28Z
Definitive object data (Epoch: 2025-02-09T05:28:44.429Z)
Latitude-0.00009°
Longitude-101.92064°
Altitude455.834 km
Speed7.633 km/s
True Right ascension07h 59m 19s
True Declination0° 00' 00"
Sunlit
Object was in full shadow at TLE epoch
Visualization TLE readout
Latitude-63.40271°
Longitude63.52602°
Altitude463.85 km
Speed7.635 km/s
Apparent Right ascension04h 57m 08s
Apparent Declination-78° 50' 56"
Sunlit
Object is in daylight
Visualization observer readout
Local Sidereal Time18:12:28
Azimuth174.386° S
Elevation-50.349°
Doppler factor1
Orbital elements
Apogee altitude449.844 km
Perigee altitude428.379 km
Semi-major axis6,817.249 km
Eccentricity0.0015743
Inclination97.4216°
RAAN119.8293°
Arg. of periapsis169.1098°
True anomaly191.01469°
Mean anomaly191.0492°
Eccentric anomaly191.03194°
Mean motion3.85593 °/min
BSTAR0.0011331
Orbital period93.36 mins
Loading maneuver chart data...
Loading historical data...
Loading historical data...
Loading historical data...
Loading historical data...
Loading historical data...
Loading historical data...
Loading historical data...

OBJECT K Visibility forecast

Observer location: undefined°, undefined

Span
Click to sort rows by Start time (UTC) header in descending order
Start Az.
Max El. time (UTC)
Max El. Az.
Max El.
End time (UTC)
End Az.
5 mins2025-02-09 18:29:58.396Z350.587° N2025-02-09 18:32:58.396Z267.84° W28.923°2025-02-09 18:34:58.396Z223.989° SW
4 mins2025-02-10 04:59:58.396Z141.325° SSE2025-02-10 05:01:58.396Z50.587° ENE37.356°2025-02-10 05:03:58.396Z2.726° NNE
|